• In Russia
  • List of Countries
  • For 7 days
  • Water Temperature
  • Satellite Maps
  • Weather Map
  • Weather Widgets
  • user-avatar
    Login

    Hourly Weather Yulara

    Today, 27 June, Thursday

    Time Temperature Precipitation Wind Pressure Humidity
    00:00 +8°C° 0 mm 4 mps 721 mmHg 40%
    01:00 +8°C° 0 mm 3 mps 721 mmHg 41%
    02:00 +8°C° 0 mm 3 mps 721 mmHg 42%
    03:00 +6°C° 0 mm 2 mps 721 mmHg 43%
    04:00 +6°C° 0 mm 2 mps 721 mmHg 43%
    05:00 +6°C° 0 mm 2 mps 721 mmHg 44%
    06:00 +6°C° 0 mm 2 mps 722 mmHg 44%
    07:00 +7°C° 0 mm 2 mps 722 mmHg 40%
    08:00 +9°C° 0 mm 2 mps 722 mmHg 36%
    09:00 +11°C° 0 mm 3 mps 722 mmHg 32%
    10:00 +14°C° 0 mm 3 mps 722 mmHg 28%
    11:00 +17°C° 0 mm 3 mps 721 mmHg 24%
    12:00 +19°C° 0 mm 3 mps 721 mmHg 21%
    13:00 +20°C° 0 mm 3 mps 721 mmHg 19%
    14:00 +21°C° 0 mm 3 mps 720 mmHg 18%
    15:00 +23°C° 0 mm 2 mps 720 mmHg 16%
    16:00 +19°C° 0 mm 2 mps 719 mmHg 20%
    17:00 +16°C° 0 mm 1 mps 719 mmHg 25%
    18:00 +14°C° 0 mm 1 mps 719 mmHg 29%
    19:00 +14°C° 0 mm 1 mps 719 mmHg 29%
    20:00 +14°C° 0 mm 2 mps 720 mmHg 29%
    21:00 +14°C° 0 mm 2 mps 720 mmHg 29%
    22:00 +13°C° 0 mm 2 mps 720 mmHg 29%
    23:00 +11°C° 0 mm 3 mps 720 mmHg 30%

    Tomorrow, 28 June, Friday

    Time Temperature Precipitation Wind Pressure Humidity
    00:00 +11°C° 0 mm 3 mps 720 mmHg 30%
    01:00 +10°C° 0 mm 3 mps 719 mmHg 32%
    02:00 +10°C° 0 mm 3 mps 719 mmHg 33%
    03:00 +9°C° 0 mm 2 mps 719 mmHg 34%
    04:00 +9°C° 0 mm 2 mps 719 mmHg 36%
    05:00 +8°C° 0 mm 2 mps 719 mmHg 38%
    06:00 +8°C° 0 mm 2 mps 719 mmHg 40%
    07:00 +10°C° 0 mm 2 mps 720 mmHg 36%
    08:00 +12°C° 0 mm 3 mps 720 mmHg 31%
    09:00 +16°C° 0 mm 3 mps 720 mmHg 26%
    10:00 +18°C° 0 mm 4 mps 720 mmHg 23%
    11:00 +20°C° 0 mm 4 mps 720 mmHg 20%
    12:00 +23°C° 0 mm 5 mps 720 mmHg 17%
    13:00 +24°C° 0 mm 6 mps 720 mmHg 17%
    14:00 +24°C° 0 mm 6 mps 719 mmHg 16%
    15:00 +26°C° 0 mm 6 mps 719 mmHg 16%
    16:00 +23°C° 0 mm 5 mps 719 mmHg 18%
    17:00 +21°C° 0 mm 5 mps 719 mmHg 20%
    18:00 +19°C° 0 mm 4 mps 719 mmHg 23%
    19:00 +19°C° 0 mm 4 mps 719 mmHg 24%
    20:00 +18°C° 0 mm 4 mps 720 mmHg 26%
    21:00 +17°C° 0 mm 4 mps 720 mmHg 27%
    22:00 +15°C° 0 mm 5 mps 720 mmHg 44%
    23:00 +12°C° 0 mm 7 mps 721 mmHg 61%

    Day after tomorrow, 29 June, Saturday

    Time Temperature Precipitation Wind Pressure Humidity
    00:00 +11°C° 0 mm 8 mps 721 mmHg 78%
    01:00 +10°C° 0 mm 7 mps 721 mmHg 78%
    02:00 +10°C° 0 mm 7 mps 721 mmHg 78%
    03:00 +9°C° 0 mm 6 mps 722 mmHg 79%
    04:00 +8°C° 0 mm 5 mps 722 mmHg 77%
    05:00 +8°C° 0 mm 4 mps 722 mmHg 76%
    06:00 +8°C° 0 mm 3 mps 723 mmHg 74%
    07:00 +8°C° 0 mm 4 mps 723 mmHg 66%
    08:00 +8°C° 0 mm 5 mps 723 mmHg 57%
    09:00 +9°C° 0 mm 5 mps 724 mmHg 49%
    10:00 +11°C° 0 mm 6 mps 724 mmHg 39%
    11:00 +14°C° 0 mm 6 mps 724 mmHg 29%
    12:00 +16°C° 0 mm 6 mps 724 mmHg 18%
    13:00 +16°C° 0 mm 6 mps 723 mmHg 17%
    14:00 +17°C° 0 mm 6 mps 723 mmHg 15%
    15:00 +19°C° 0 mm 6 mps 722 mmHg 14%
    16:00 +16°C° 0 mm 6 mps 723 mmHg 16%
    17:00 +14°C° 0 mm 5 mps 723 mmHg 19%
    18:00 +12°C° 0 mm 5 mps 723 mmHg 21%
    19:00 +10°C° 0 mm 5 mps 723 mmHg 23%
    20:00 +8°C° 0 mm 5 mps 723 mmHg 25%
    21:00 +7°C° 0 mm 4 mps 724 mmHg 26%
    22:00 +7°C° 0 mm 4 mps 724 mmHg 29%
    23:00 +6°C° 0 mm 4 mps 724 mmHg 31%

    30 June, Sunday

    Time Temperature Precipitation Wind Pressure Humidity
    00:00 +5°C° 0 mm 4 mps 724 mmHg 33%
    01:00 +4°C° 0 mm 4 mps 724 mmHg 38%
    02:00 +4°C° 0 mm 4 mps 724 mmHg 43%
    03:00 +3°C° 0 mm 3 mps 723 mmHg 48%
    04:00 +3°C° 0 mm 4 mps 724 mmHg 53%
    05:00 +3°C° 0 mm 4 mps 724 mmHg 57%
    06:00 +1°C° 0 mm 4 mps 724 mmHg 62%
    07:00 +4°C° 0 mm 4 mps 725 mmHg 58%
    08:00 +6°C° 0 mm 5 mps 725 mmHg 54%
    09:00 +7°C° 0 mm 6 mps 725 mmHg 50%
    10:00 +9°C° 0 mm 6 mps 724 mmHg 42%
    11:00 +13°C° 0 mm 6 mps 724 mmHg 35%
    12:00 +15°C° 0 mm 6 mps 723 mmHg 27%
    13:00 +16°C° 0 mm 6 mps 723 mmHg 24%
    14:00 +17°C° 0 mm 5 mps 722 mmHg 21%
    15:00 +19°C° 0 mm 5 mps 721 mmHg 19%
    16:00 +17°C° 0 mm 4 mps 721 mmHg 22%
    17:00 +14°C° 0 mm 4 mps 721 mmHg 25%
    18:00 +12°C° 0 mm 3 mps 721 mmHg 29%
    19:00 +11°C° 0 mm 4 mps 721 mmHg 31%
    20:00 +10°C° 0 mm 4 mps 721 mmHg 34%
    21:00 +8°C° 0 mm 4 mps 722 mmHg 37%
    22:00 +8°C° 0 mm 4 mps 722 mmHg 40%
    23:00 +7°C° 0 mm 4 mps 722 mmHg 43%

    1 July, Monday

    Time Temperature Precipitation Wind Pressure Humidity
    00:00 +6°C° 0 mm 4 mps 722 mmHg 46%
    01:00 +5°C° 0 mm 4 mps 722 mmHg 48%
    02:00 +5°C° 0 mm 4 mps 721 mmHg 51%
    03:00 +4°C° 0 mm 3 mps 721 mmHg 53%
    04:00 +4°C° 0 mm 3 mps 721 mmHg 55%
    05:00 +4°C° 0 mm 3 mps 721 mmHg 56%
    06:00 +3°C° 0 mm 3 mps 722 mmHg 58%
    07:00 +5°C° 0 mm 3 mps 722 mmHg 52%
    08:00 +8°C° 0 mm 3 mps 722 mmHg 46%
    09:00 +9°C° 0 mm 2 mps 722 mmHg 40%
    10:00 +13°C° 0 mm 2 mps 722 mmHg 35%
    11:00 +15°C° 0 mm 2 mps 721 mmHg 30%
    12:00 +18°C° 0 mm 2 mps 721 mmHg 25%
    13:00 +19°C° 0 mm 3 mps 720 mmHg 23%
    14:00 +20°C° 0 mm 3 mps 720 mmHg 22%
    15:00 +22°C° 0 mm 4 mps 719 mmHg 20%
    16:00 +19°C° 0 mm 3 mps 719 mmHg 27%
    17:00 +16°C° 0 mm 2 mps 719 mmHg 35%
    18:00 +13°C° 0 mm 1 mps 719 mmHg 42%
    19:00 +12°C° 0 mm 1 mps 719 mmHg 47%
    20:00 +11°C° 0 mm 1 mps 719 mmHg 52%
    21:00 +10°C° 0 mm 1 mps 719 mmHg 56%
    22:00 +10°C° 0 mm 2 mps 719 mmHg 49%
    23:00 +10°C° 0 mm 3 mps 719 mmHg 42%

    2 July, Tuesday

    Time Temperature Precipitation Wind Pressure Humidity
    00:00 +11°C° 0 mm 3 mps 719 mmHg 35%
    01:00 +10°C° 0 mm 4 mps 719 mmHg 35%
    02:00 +10°C° 0 mm 4 mps 719 mmHg 35%
    03:00 +8°C° 0 mm 4 mps 719 mmHg 36%
    04:00 +9°C° 0 mm 3 mps 719 mmHg 37%
    05:00 +9°C° 0 mm 3 mps 719 mmHg 38%
    06:00 +8°C° 0 mm 3 mps 720 mmHg 39%
    07:00 +10°C° 0 mm 3 mps 720 mmHg 35%
    08:00 +12°C° 0 mm 4 mps 721 mmHg 31%
    09:00 +13°C° 0 mm 4 mps 721 mmHg 27%
    10:00 +15°C° 0 mm 4 mps 721 mmHg 25%
    11:00 +18°C° 0 mm 3 mps 721 mmHg 22%
    12:00 +20°C° 0 mm 3 mps 721 mmHg 20%
    13:00 +21°C° 0 mm 3 mps 720 mmHg 19%
    14:00 +21°C° 0 mm 3 mps 720 mmHg 18%
    15:00 +23°C° 0 mm 2 mps 720 mmHg 17%
    16:00 +19°C° 0 mm 2 mps 720 mmHg 20%
    17:00 +17°C° 0 mm 3 mps 720 mmHg 23%
    18:00 +14°C° 0 mm 3 mps 720 mmHg 25%
    19:00 +13°C° 0 mm 3 mps 720 mmHg 26%
    20:00 +13°C° 0 mm 4 mps 721 mmHg 27%
    21:00 +12°C° 0 mm 4 mps 721 mmHg 28%
    22:00 +11°C° 0 mm 4 mps 721 mmHg 29%
    23:00 +10°C° 0 mm 4 mps 721 mmHg 30%
    Show more